Flag for U.S.A. Weather past 2 weeks in Everett, Washington, U.S.A.

Now
54 °F

Overcast.


Feels Like: 49 °F
Forecast: 46 / 52 °F
Wind: 17 mph from Southwest

Location: Snohomish County Airport

Current Time: Dec 20, 2014 at 9:29:33 PM

Latest Report: Dec 20, 2014 at 8:53 PM


Visibility: 10 mi

Pressure: 29.42 "Hg

Humidity: 90%

Dew point: 51 °F

Location of EverettLocation

Historic Weather in Everett — Graph

°F

Everett temperature yesterday

Maximum temperature yesterday: 49 °F (at 12:53 PM)
Minimum temperature yesterday: 44 °F (at 5:53 AM)
Average temperature yesterday: 47 °F

Past Weeks' High & Low Weather Summary

 TemperatureHumidityPressure
High62 °F (Dec 10, 9:53 AM)97% (Dec 13, 8:02 PM)30.24 "Hg (Dec 13, 8:02 PM)
Low33 °F (Dec 15, 2:53 AM)38% (Dec 15, 12:53 PM)29.15 "Hg (Dec 11, 3:53 PM)
Average48 °F76%29.85 "Hg
* Reported Dec 5 7:53 PM — Dec 20 7:53 PM, Everett, Weather by CustomWeather, © 2014

Note: Actual official high and low records may vary slightly from our data, if they occured in-between our weather recording intervals... More about our weather records

Advertising

Everett weather history for previous 24 hours

 ConditionsComfort  
Time TempWeatherWind HumidityBarometerVisibility
7:53 PM
Dec 20
54 °FLow clouds.15 mph90%29.42 "Hg10 mi
6:53 PM53 °FLow clouds.22 mph89%29.42 "Hg10 mi
5:53 PM50 °FLow clouds.17 mph93%29.43 "Hg10 mi
5:00 PM48 °FFog.13 mph93%29.43 "Hg5 mi
4:53 PM48 °FFog.14 mph93%29.44 "Hg2 mi
3:53 PM47 °FLight rain. Fog.8 mph90%29.46 "Hg2 mi
2:53 PM47 °FFog.8 mph90%29.49 "Hg2 mi
1:53 PM46 °FLight rain. Mostly cloudy.13 mph89%29.51 "Hg7 mi
12:53 PM46 °FLight rain. Fog.16 mph86%29.54 "Hg2 mi
11:53 AM45 °FLight rain. Fog.12 mph90%29.58 "Hg3 mi
10:53 AM45 °FFog.8 mph90%29.62 "Hg5 mi
9:53 AM45 °FCloudy.9 mph86%29.64 "Hg10 mi
8:53 AM44 °FOvercast.9 mph89%29.63 "Hg8 mi
7:53 AM44 °FMostly cloudy.6 mph85%29.65 "Hg10 mi
6:53 AM44 °FLight rain. Fog.12 mph85%29.66 "Hg6 mi
5:53 AM45 °FLight rain. Overcast.15 mph80%29.67 "Hg10 mi
4:53 AM45 °FLight rain. Overcast.9 mph76%29.70 "Hg10 mi
3:53 AM44 °FMostly cloudy.8 mph79%29.73 "Hg10 mi
2:53 AM44 °FLight rain. Overcast.7 mph82%29.76 "Hg9 mi
1:53 AM44 °FLight rain. Overcast.6 mph82%29.80 "Hg10 mi
12:53 AM45 °FLight rain. Overcast.14 mph76%29.84 "Hg9 mi
11:53 PM
Dec 19
46 °FLight rain. Mostly cloudy.8 mph71%29.86 "Hg10 mi
10:53 PM46 °FMostly cloudy.5 mph71%29.87 "Hg10 mi
9:53 PM46 °FPassing clouds.9 mph71%29.87 "Hg10 mi
Weather by CustomWeather, © 2014

See weather overviewHow to use our weather pages